Retour au catalogue

STARLINK-33786

ActifCommunicationsVLEO
NORAD 63514·PAYLOAD·🇺🇸 United States

Lancé Apr 7, 2025 depuis Vandenberg Space Force Base

Loading…

Prochains Passages (prochaines 24 heures)

TLE

FraisSource: CelesTrak SupGP

Époque: Sep 15, 2026, 03:21 UTC

1 63514C 25071X   26258.14006944  .00068563  00000+0  20253-2 0  2584
2 63514  53.1580 338.5427 0001208  95.9763 308.4895 15.34363407    19

Suivez STARLINK-33786 en temps réel avec AllMySat

Download on the App Store